Regional Weather Roundup
Issued by NWS Green Bay, WI

Home | Current Version | Previous Version | Graphics & Text | Print | Product List | Glossary Off
Versions: 1 2 3 4 5 6 7 8 9 10 11 12 13 14 15 16 17 18 19 20 21 22 23 24 25 26 27 28 29 30 31 32 33 34 35 36 37 38 39 40 41 42 43 44 45 46 47 48 49 50

925
ASUS43 KGRB 242211
RWRGRB

NORTH-CENTRAL AND NORTHEAST WISCONSIN REGIONAL WEATHER ROUNDUP
NATIONAL WEATHER SERVICE GREEN BAY WI
500 PM CDT FRI MAR 24 2017

WIZ005-009-010>012-018-019-242300-
NORTH CENTRAL WISCONSIN

CITY           SKY/WX    TMP DP  RH WIND       PRES   REMARKS
IRONWOOD       CLOUDY    36  32  85 N9        30.12S
MANITOWISH WTR CLOUDY    35  35 100 N3        30.08R
ARBOR VITAE    CLOUDY    37  35  94 N6        30.07R FOG
EAGLE RIVER    CLOUDY    34  34  99 N8        30.07S FOG
LAND O LAKES   FOG       34  34 100 N3        30.09S VSB 1/4
RHINELANDER    CLOUDY    36  35  96 N5        30.08R FOG
PHILLIPS       CLOUDY    35  35  98 NE8       30.08R
ANTIGO         CLOUDY    36  35  96 NE6       30.06R
TOMAHAWK       CLOUDY    36  33  90 N3        30.08R FOG
MERRILL        CLOUDY    37  36  97 N8        30.08R
$$

WIZ013-073-242300-
NORTHEAST WISCONSIN

CITY           SKY/WX    TMP DP  RH WIND       PRES   REMARKS
IRON MOUNTAIN  CLOUDY    37  32  82 N10       30.07R
MARINETTE        N/A    N/A N/A N/A MISG        N/A
OCONTO         CLOUDY    37  35  94 N5        30.09R
$$

WIZ017-030-035>037-045-242300-
CENTRAL WISCONSIN

CITY           SKY/WX    TMP DP  RH WIND       PRES   REMARKS
MEDFORD        CLOUDY    37  34  92 N12       30.07R FOG
WAUSAU         CLOUDY    38  36  92 N5        30.05R
MOSINEE        CLOUDY    37  37 100 NE8       30.06R
MARSHFIELD     LGT RAIN  38  37  97 NE8       30.05R
WISC RAPIDS    LGT RAIN  38  38 100 E9        30.07R
STEVENS POINT  DRIZZLE   36  36 100 NE7       30.07R
WAUPACA        DRIZZLE   39  37  93 N6        30.07R
SHAWANO        RAIN      38  36  92 NE3       30.08R
CLINTONVILLE   RAIN      36  36 100 NE6       30.08R
WAUTOMA        LGT RAIN  37  36  96 N12       30.05R
$$

WIZ038-039-048-051-242300-
FOX VALLEY

CITY           SKY/WX    TMP DP  RH WIND       PRES   REMARKS
NWS GREEN BAY  LGT RAIN  37  37 100 NE10      30.09R FOG
APPLETON       DRIZZLE   36  36 100 NE8       30.04R
OSHKOSH        LGT RAIN  37  34  89 NE18G24   30.03S FOG
FOND DU LAC    LGT RAIN  38  34  85 N18       30.03R
$$

WIZ022-050-052-242300-
EAST CENTRAL WISCONSIN

CITY           SKY/WX    TMP DP  RH WIND       PRES   REMARKS
EPHRAIM        RAIN      33  33 100 N6        30.07R
WASHINGTON ISL LGT RAIN  32  32  99 N7        30.08R
STURGEON BAY   LGT RAIN  35  34  96 N5        30.09R
MANITOWOC      CLOUDY    37  34  89 N12G17    30.08R
SHEBOYGAN      LGT RAIN  37  35  92 N16G24    30.01S FOG
$$

LMZ563-521-522-541>543-242300-
LAKESHORE

STATION/POSITION TIME  TEMP    WIND        PRES    VSBY  WAVE
                       AIR SEA DIR/SP/G                  HT/PER
                 (UTC) (F)     (DEG/KT/KT) (MB)    (MI)  (FT/S)
SHEBOYGAN LKSHOR 2200   36     360/ 28/ 32 1016.7S
KEWAUNEE LKSHORE 2148   35      20/  7/ 13 1017.8R
NORTHPORT PIER   2140   33     330/  3/  6 1018.6R
SISTER BAY LKSHO 2136   34      40/  7/  9   N/A
CHAMBERS ISLAND  2140   33     360/  8/  9 1018.3R
MENOMINEE LKSHOR 2148   34      20/  7/  8 1017.9R
$$




USA.gov is the U.S. government's official web portal to all federal, state and local government web resources and services.